Temperature
15 15 15 15 15 15 15 15 15 15 15 15 15 15 15 15 15 15 15 15 15 15 15 15 15 15 15 15 15 15 15 15 15 15 15 15 15 15 15 15 15 15 15
15 15 15 15 15 15 15 15 15 15 15 15 15 15 15 15 15 15 14 15 15 15 15 15 15 15 15 15 15 15 15 15 15 15 15 15 15 15 15 15 15 15 15
15 15 15 14 14 14 14 14 14 14 14 14 14 14 14 14 14 14 14 14 14 15 15 15 15 15 15 15 15 15 15 15 15 15 15 14 14 14 14 14 14 14 14
14 14 14 14 14 14 14 14 14 14 14 14 14 14 14 14 14 14 14 14 14 14 14 15 15 15 15 15 15 14 14 14 14 14 14 14 14 14 14 14 14 14 14
14 14 14 14 14 14 14 14 14 14 14 14 14 14 14 14 14 14 14 14 14 14 14 14 14 14 14 14 14 14 14 14 14 14 14 14 14 14 14 14 14 14 14
14 14 14 14 14 14 14 14 14 14 14 14 14 14 14 14 14 14 14 14 14 14 14 14 14 14 14 14 14 14 14 14 14 14 13 13 14 14 14 14 14 14 14
14 14 14 13 13 13 13 13 13 13 13 14 14 14 14 14 14 14 14 14 14 14 14 14 13 13 13 14 14 13 14 13 13 13 13 13 13 13 13 13 13 13 13
14 14 13 13 13 13 13 13 13 13 13 13 13 14 14 14 13 13 13 13 13 13 13 13 13 13 13 13 13 13 13 13 13 13 13 13 13 13 13 13 13 13 13
14 14 13 13 13 13 13 13 13 13 13 13 13 13 14 14 13 13 13 13 13 13 13 13 13 13 13 13 13 13 13 13 13 13 13 13 13 13 13 13 13 13 13
13 13 13 13 13 13 13 13 13 13 13 13 13 13 13 13 14 13 13 13 13 13 13 13 13 13 13 13 13 13 13 13 13 13 13 13 13 13 13 13 13 13 13
13 13 13 13 13 13 13 13 13 12 13 13 13 13 13 13 13 14 13 13 13 13 13 12 13 13 13 12 12 13 13 13 13 13 13 13 13 13 13 13 12 12 12
13 13 13 13 13 13 13 12 12 12 12 12 13 13 13 13 13 13 13 13 13 13 12 12 12 12 12 12 12 13 13 13 13 12 12 12 12 12 12 12 12 12 12
13 13 13 13 13 12 12 12 12 12 12 12 12 12 12 12 12 13 13 13 12 12 12 12 12 12 12 12 12 12 12 12 12 12 12 12 12 12 12 12 12 12 12
12 12 13 13 12 12 12 12 12 12 12 12 12 12 12 12 12 12 12 12 13 13 12 12 12 12 12 12 12 12 12 12 12 12 12 12 12 12 12 12 12 11 11
12 12 12 12 12 12 12 12 12 12 12 12 12 12 12 12 12 12 12 12 12 13 13 12 12 11 11 11 12 11 11 12 12 12 12 12 12 12 12 11 11 11 11
12 12 12 12 12 12 12 12 12 12 12 12 12 12 12 12 12 12 12 12 12 12 12 12 11 11 11 11 11 11 11 11 11 11 11 11 11 11 11 11 11 11 11
12 12 12 12 12 12 12 12 12 12 11 11 11 11 11 12 11 12 12 12 12 12 11 11 11 11 11 11 11 11 11 11 11 11 11 11 11 11 11 11 11 11 11
12 12 12 12 12 12 12 11 12 11 11 11 11 11 11 11 11 11 11 11 11 11 11 11 11 11 11 11 11 11 11 11 11 11 11 11 11 11 11 11 11 11 11
11 11 11 11 11 11 11 11 11 11 11 11 11 11 11 11 11 11 11 11 11 11 11 11 10 10 10 11 11 10 10 10 10 10 10 11 11 11 11 11 11 11 11
11 11 11 11 11 11 11 11 11 11 11 11 11 11 11 11 10 10 11 11 10 10 10 10 10 10 10 10 10 10 10 10 10 10 10 10 10 10 10 10 10 10 10
11 11 11 11 11 11 10 10 10 10 10 10 10 10 10 10 10 10 10 10 10 10 10 10 10 10 10 10 10 10 10 10 10 10 10 10 10 10 10 10 10 10 10
10 10 10 10 10 10 10 10 10 10 10 10 10 10 10 10 10 10 10 10 10 10 10 10 10 10 10 9 9 9 9 9 9 9 10 9 10 10 10 10 10 10 10
10 10 10 10 10 10 10 10 10 10 10 10 10 10 10 10 10 10 10 10 10 10 10 10 10 10 10 9 9 9 9 9 9 9 9 9 9 9 9 10 10 10 10
10 10 10 10 9 9 9 9 9 9 9 9 9 9 9 10 10 10 9 9 9 10 9 9 9 9 9 9 9 9 9 9 9 9 9 9 9 9 9 9 10 10 10
9 9 9 9 9 9 9 9 9 9 9 9 9 9 9 9 9 9 9 9 9 9 9 9 9 9 9 9 9 9 9 9 9 9 9 8 8 9 9 9 9 9 9
9 9 9 9 9 9 9 9 9 8 8 8 9 9 9 9 9 9 9 9 9 9 9 9 9 9 9 9 9 9 9 8 8 8 9 8 8 8 8 9 9 9 9
Wind_Speed
3 3 3 3 4 4 3 3 4 4 4 5 5 5 5 6 6 6 7 12 11 11 9 8 8 7 8 8 9 9 9 10 10 11 11 11 11 11 11 10 10 9 10
3 3 3 3 3 3 3 3 4 3 3 4 4 5 5 5 6 5 5 8 11 11 10 9 9 8 8 8 8 9 9 10 11 11 11 11 11 11 10 10 10 10 11
3 3 2 3 3 3 4 3 4 3 3 4 4 4 4 5 4 5 5 5 6 9 10 9 9 8 8 8 7 8 9 10 10 10 10 10 11 11 11 10 11 11 11
3 2 2 2 3 3 3 2 2 3 3 3 3 3 3 4 4 5 4 5 5 5 8 9 9 8 8 8 7 8 9 9 9 9 9 10 10 11 11 11 12 12 11
2 2 2 2 2 2 2 2 2 2 3 3 3 3 3 3 3 4 4 5 5 4 5 8 9 9 8 7 8 8 9 9 9 9 9 9 10 11 11 11 12 11 11
2 2 2 2 2 2 2 2 2 2 2 2 3 3 3 3 3 3 3 4 4 4 4 4 5 8 9 8 8 8 8 8 9 8 9 9 10 11 11 11 11 10 10
1 2 1 2 1 1 2 2 2 2 2 2 2 2 3 3 3 3 3 3 4 4 4 4 3 4 5 8 8 8 7 8 8 8 9 9 10 10 10 10 10 9 9
1 1 1 2 1 1 2 2 2 1 1 1 1 1 2 2 2 3 2 3 3 3 4 4 4 4 5 5 9 10 9 8 8 8 9 9 10 10 9 9 9 9 9
1 1 1 1 1 1 1 1 2 2 2 1 1 1 1 1 1 2 2 2 2 3 3 4 4 5 5 5 6 8 8 8 7 7 8 8 8 9 9 9 9 9 9
0 0 1 1 1 1 1 2 2 2 2 1 1 1 1 0 1 1 2 2 2 3 3 3 3 4 4 4 6 8 8 7 7 6 7 7 7 8 8 8 8 8 8
0 0 1 1 2 2 2 2 2 2 2 2 1 1 0 1 2 1 1 1 1 2 2 2 2 3 4 4 5 7 8 7 6 5 6 6 7 7 7 7 8 7 7
1 1 2 2 2 2 2 2 2 3 2 2 2 2 1 1 2 1 1 1 1 1 1 1 1 2 3 4 5 8 6 6 5 5 5 6 6 6 6 6 6 6 6
1 1 2 2 2 2 2 2 2 3 3 3 2 2 1 1 2 2 1 1 1 1 1 1 1 2 2 3 4 5 5 5 5 5 5 5 6 5 6 6 6 6 5
2 2 2 2 2 3 2 2 3 3 2 3 3 3 2 2 2 2 2 2 2 1 2 2 1 1 1 2 4 3 5 6 6 5 5 5 5 6 5 5 5 5 4
2 2 3 3 3 3 3 3 3 3 3 3 3 4 3 2 2 2 2 2 3 2 2 1 1 1 2 2 3 3 4 7 6 6 5 5 5 5 5 5 4 5 4
2 3 3 3 3 3 3 3 3 2 3 3 3 3 3 3 2 2 2 3 3 3 2 1 1 2 2 2 3 2 4 7 6 5 5 4 4 4 4 4 4 4 3
3 3 3 3 3 4 4 3 4 3 4 4 4 4 4 3 3 3 3 3 3 3 3 2 1 2 2 2 3 2 3 4 5 6 4 4 3 3 3 3 3 4 3
2 3 3 3 3 3 4 4 5 5 5 4 4 5 5 4 4 4 3 4 3 3 3 3 2 2 2 2 2 2 2 2 3 6 5 3 3 3 3 3 3 3 3
3 3 3 4 3 4 4 5 5 5 5 5 5 5 5 5 5 4 4 4 3 3 3 4 3 2 2 2 2 2 2 2 2 5 5 4 4 3 3 4 4 3 3
3 3 3 3 3 4 4 5 5 5 5 5 5 5 5 5 5 5 5 5 4 4 4 4 3 3 3 2 3 3 3 2 3 3 3 4 5 5 5 6 5 4 4
2 3 3 2 2 3 3 4 5 5 6 5 5 5 5 4 2 3 4 4 5 4 4 4 4 4 4 3 4 4 4 3 3 3 3 3 4 5 5 7 8 7 6
2 2 2 2 2 2 1 3 4 5 5 5 5 5 5 4 3 4 4 4 5 6 6 5 5 6 5 5 4 4 4 4 3 3 4 4 4 4 4 5 7 8 9
2 2 2 2 2 1 1 1 3 3 3 4 5 5 4 4 5 5 5 6 7 7 6 6 7 7 6 6 6 7 6 5 4 3 4 4 4 5 5 5 7 9 9
2 2 2 2 2 1 0 1 2 3 3 4 4 5 5 5 4 5 5 6 6 7 7 7 7 6 6 5 7 7 7 6 4 3 4 4 4 4 4 5 8 10 10
2 2 2 2 2 2 1 0 2 3 3 4 4 4 5 5 3 4 6 6 6 6 5 6 5 4 3 4 5 4 5 5 5 4 5 4 4 4 4 5 6 10 11
2 2 2 2 3 2 1 1 2 3 4 3 3 3 3 4 3 5 7 7 7 6 5 6 6 6 6 6 8 7 6 6 5 4 4 4 4 3 3 3 4 6 9
Wind_Direction
69 79 85 79 77 80 88 87 90 87 81 76 72 69 68 65 68 68 70 63 53 52 55 60 66 73 76 76 75 76 78 78 79 84 82 91 97 98 97 97 96 95 92
72 76 81 79 77 79 79 85 86 91 87 84 79 73 67 63 64 68 70 75 67 55 53 56 61 66 75 78 79 79 81 84 85 88 85 89 94 95 96 97 94 91 88
76 77 77 81 82 88 89 84 85 85 90 90 82 70 66 60 61 66 66 61 74 72 60 57 59 63 67 77 83 87 85 87 86 86 87 90 94 95 93 92 92 89 86
76 79 81 86 88 94 99 94 89 90 84 80 78 71 65 66 58 57 62 61 52 61 72 65 61 63 67 75 82 87 88 90 92 92 93 94 95 94 92 92 92 88 85
85 99 89 96 102 100 97 99 89 83 86 77 71 66 60 59 56 54 55 54 56 51 65 86 76 64 66 73 78 83 86 90 95 97 96 97 96 93 91 91 89 86 84
93 107 120 123 118 121 110 106 101 84 82 81 76 70 66 69 59 51 46 49 49 50 53 63 81 81 72 69 74 83 90 93 99 102 99 98 95 92 90 90 88 87 84
108 115 134 129 132 137 140 133 128 116 108 100 109 114 102 80 72 63 53 50 55 50 55 56 60 70 88 84 67 71 83 92 94 99 98 99 96 93 91 91 90 89 85
119 123 154 150 157 153 157 152 158 166 148 173 206 199 163 149 97 67 64 60 52 58 54 57 67 72 68 79 77 70 69 82 89 99 96 95 95 95 92 92 93 92 88
128 162 161 162 162 182 177 186 192 203 200 202 270 272 232 176 127 115 79 70 59 58 58 51 61 72 80 82 83 79 71 79 92 101 102 104 101 99 95 92 90 91 89
32 330 186 194 201 197 196 208 206 231 228 215 205 309 319 8 222 166 143 95 68 58 51 46 47 62 72 87 86 75 76 80 92 108 109 109 106 104 100 95 95 92 89
155 176 228 223 227 215 210 211 219 229 229 239 221 200 223 227 248 222 171 141 110 77 61 49 50 56 63 77 82 81 82 78 86 100 111 111 108 105 102 98 94 93 90
188 192 233 225 230 225 214 212 219 222 227 233 235 225 224 224 230 229 207 200 155 87 87 66 51 61 64 74 80 80 82 81 84 89 98 108 108 106 107 102 97 92 94
235 235 235 236 234 233 226 226 226 227 226 230 233 240 242 252 260 251 229 215 191 155 129 134 85 80 84 92 94 95 97 93 96 96 96 101 106 107 107 104 101 96 95
256 253 237 240 242 239 231 226 231 231 238 237 233 231 230 231 234 234 226 217 208 203 195 168 137 118 101 113 99 129 115 109 103 101 95 98 100 98 101 103 100 96 94
262 254 243 232 230 231 231 221 224 225 232 238 235 232 232 224 233 229 228 230 232 224 220 184 183 159 139 111 121 148 134 116 116 111 103 101 104 101 98 99 97 94 93
251 250 245 234 226 223 224 225 226 234 228 224 234 233 229 221 216 222 225 232 241 239 238 217 198 179 144 136 123 141 130 129 135 126 116 111 104 104 104 100 96 97 97
246 240 244 241 236 233 227 222 228 228 232 226 221 222 224 225 218 218 216 219 226 220 220 230 202 175 162 163 133 149 153 151 144 145 134 128 122 124 124 116 112 101 97
259 247 242 242 238 236 231 228 231 231 236 237 234 227 221 216 223 221 220 218 218 214 208 204 192 186 193 183 172 178 168 158 155 143 151 149 150 144 150 145 138 127 117
267 255 244 244 240 235 231 230 233 235 237 237 238 239 230 221 221 217 220 219 219 214 205 199 191 170 194 191 195 199 193 177 179 163 171 182 181 180 180 172 168 162 156
266 261 252 249 243 239 236 237 237 238 235 234 237 241 239 234 232 222 217 216 216 212 206 201 195 184 186 193 202 203 203 200 209 192 189 205 202 203 201 195 194 192 189
264 257 254 255 250 241 242 241 238 239 235 232 235 237 235 237 258 233 223 217 213 212 207 208 206 201 194 191 205 208 211 203 212 208 210 211 208 213 211 208 209 211 211
271 254 249 249 256 260 318 281 256 242 240 236 235 235 224 212 211 214 219 223 227 222 216 216 219 216 215 212 212 212 209 210 221 204 224 231 221 227 224 223 207 210 216
276 270 263 266 267 286 338 270 271 255 243 245 244 238 227 219 212 221 213 212 221 227 234 231 226 227 226 216 212 217 219 221 232 201 215 234 225 232 226 222 204 208 215
264 262 263 256 255 259 115 254 271 251 248 250 251 245 235 227 221 229 226 226 230 224 222 231 237 238 235 228 219 224 225 226 237 208 210 242 231 238 236 226 205 208 216
271 272 264 248 244 245 113 201 264 257 254 253 250 246 244 240 225 232 229 227 230 232 213 223 252 252 248 227 210 213 211 213 229 221 209 235 245 246 247 239 213 207 216
276 267 258 245 248 253 164 213 266 256 261 264 261 251 242 254 238 227 227 225 229 231 226 217 223 225 223 208 203 217 217 222 229 230 205 219 235 239 248 238 228 219 220
Height
1538 1538 1537 1537 1537 1537 1537 1538 1538 1538 1538 1539 1539 1539 1539 1538 1538 1538 1537 1536 1535 1535 1534 1533 1533 1532 1531 1530 1529 1528 1527 1525 1523 1523 1521 1522 1523 1526 1528 1529 1530 1531 1531
1539 1539 1538 1538 1538 1538 1538 1538 1539 1539 1539 1539 1539 1539 1539 1539 1539 1538 1538 1537 1536 1536 1535 1534 1534 1533 1532 1532 1531 1530 1529 1528 1526 1526 1526 1526 1527 1529 1530 1531 1532 1532 1532
1539 1539 1539 1539 1539 1539 1539 1539 1539 1539 1539 1540 1540 1540 1540 1540 1540 1539 1539 1538 1538 1537 1536 1535 1535 1534 1534 1533 1532 1532 1531 1530 1529 1529 1529 1529 1530 1531 1532 1532 1533 1533 1533
1540 1539 1539 1539 1539 1539 1539 1539 1540 1540 1540 1540 1540 1540 1541 1540 1540 1540 1540 1539 1539 1538 1537 1536 1536 1535 1535 1534 1534 1533 1532 1532 1532 1532 1532 1532 1533 1533 1534 1534 1534 1534 1534
1540 1539 1539 1539 1539 1539 1540 1540 1540 1540 1540 1540 1540 1541 1541 1541 1540 1540 1540 1540 1539 1538 1538 1537 1537 1536 1536 1535 1535 1534 1534 1534 1534 1534 1534 1534 1535 1535 1535 1535 1535 1535 1536
1540 1539 1539 1539 1539 1539 1540 1540 1540 1540 1540 1540 1540 1541 1541 1541 1541 1540 1540 1540 1540 1539 1539 1538 1538 1537 1537 1536 1536 1536 1536 1535 1536 1536 1536 1536 1536 1536 1536 1536 1536 1536 1536
1540 1539 1539 1539 1539 1539 1540 1540 1540 1540 1540 1541 1541 1541 1541 1541 1541 1540 1540 1540 1540 1539 1539 1538 1539 1538 1538 1537 1537 1537 1537 1537 1537 1537 1537 1537 1537 1537 1537 1537 1537 1537 1537
1539 1539 1539 1539 1539 1539 1539 1539 1539 1540 1540 1541 1541 1541 1542 1543 1541 1540 1540 1540 1540 1540 1539 1539 1539 1539 1539 1539 1538 1538 1538 1538 1538 1538 1538 1538 1538 1538 1538 1538 1538 1538 1537
1539 1539 1539 1539 1538 1539 1539 1539 1539 1539 1540 1540 1541 1542 1541 1541 1541 1541 1540 1540 1540 1539 1539 1539 1539 1539 1539 1539 1539 1538 1538 1538 1539 1539 1539 1539 1539 1539 1539 1538 1538 1538 1538
1538 1538 1538 1538 1538 1538 1538 1538 1538 1539 1539 1540 1540 1539 1541 1541 1541 1541 1541 1540 1539 1539 1539 1539 1539 1539 1539 1539 1539 1538 1539 1539 1539 1539 1539 1539 1539 1539 1539 1539 1538 1538 1538
1537 1537 1537 1537 1537 1537 1537 1537 1537 1538 1538 1539 1539 1539 1539 1539 1540 1540 1540 1540 1540 1539 1539 1539 1539 1539 1539 1539 1539 1538 1539 1539 1539 1539 1539 1539 1539 1539 1539 1539 1538 1538 1537
1535 1536 1536 1536 1536 1536 1536 1536 1536 1537 1537 1537 1538 1539 1539 1539 1539 1539 1539 1539 1539 1539 1539 1538 1538 1538 1538 1539 1538 1538 1538 1539 1539 1539 1539 1539 1539 1539 1539 1538 1538 1538 1537
1534 1534 1534 1535 1535 1535 1535 1535 1535 1535 1536 1536 1537 1537 1537 1538 1538 1538 1539 1539 1539 1539 1538 1538 1538 1538 1538 1538 1538 1538 1538 1538 1538 1538 1539 1539 1539 1539 1538 1538 1538 1537 1537
1532 1532 1532 1533 1533 1533 1533 1533 1533 1534 1534 1535 1535 1535 1536 1536 1536 1537 1537 1538 1538 1538 1538 1538 1537 1537 1537 1537 1537 1537 1537 1537 1537 1538 1538 1538 1538 1538 1538 1538 1538 1537 1536
1530 1530 1530 1530 1530 1531 1531 1531 1532 1532 1532 1533 1533 1533 1534 1534 1535 1535 1535 1536 1537 1537 1537 1537 1537 1536 1536 1536 1536 1537 1537 1536 1537 1537 1537 1537 1537 1537 1538 1538 1537 1537 1536
1528 1528 1528 1528 1528 1528 1529 1529 1530 1530 1531 1531 1531 1531 1532 1532 1533 1533 1533 1534 1535 1535 1535 1535 1535 1535 1535 1535 1535 1536 1536 1535 1536 1536 1536 1537 1537 1537 1537 1537 1537 1536 1535
1526 1525 1526 1526 1526 1526 1526 1527 1527 1528 1528 1529 1529 1529 1529 1530 1530 1531 1531 1532 1532 1533 1533 1533 1533 1533 1533 1533 1534 1534 1535 1535 1535 1535 1535 1536 1536 1536 1536 1536 1536 1535 1535
1523 1523 1523 1523 1523 1523 1524 1524 1525 1525 1526 1526 1526 1527 1527 1527 1528 1528 1529 1530 1530 1531 1531 1531 1531 1531 1532 1532 1532 1533 1533 1533 1534 1533 1534 1534 1534 1534 1535 1535 1534 1534 1534
1521 1520 1520 1520 1520 1520 1521 1521 1522 1523 1523 1524 1524 1524 1524 1525 1525 1526 1526 1527 1528 1528 1529 1529 1529 1529 1529 1530 1530 1531 1532 1532 1532 1532 1532 1533 1533 1533 1533 1533 1533 1533 1532
1518 1518 1518 1517 1517 1517 1518 1518 1519 1519 1520 1521 1521 1521 1522 1522 1522 1523 1523 1524 1525 1526 1527 1527 1527 1527 1527 1528 1528 1529 1530 1530 1530 1531 1531 1531 1531 1531 1531 1531 1531 1531 1531
1515 1515 1515 1515 1515 1515 1515 1515 1515 1516 1517 1518 1518 1518 1519 1519 1519 1520 1520 1521 1522 1523 1524 1524 1525 1525 1525 1525 1526 1527 1527 1528 1528 1529 1529 1529 1529 1529 1529 1529 1529 1529 1529
1512 1512 1512 1512 1512 1512 1512 1512 1512 1513 1514 1515 1515 1515 1515 1516 1516 1516 1517 1518 1519 1520 1521 1521 1522 1522 1523 1523 1524 1524 1525 1526 1526 1527 1526 1527 1527 1527 1527 1527 1526 1526 1526
1509 1509 1509 1509 1509 1509 1509 1509 1509 1510 1511 1511 1512 1512 1512 1512 1513 1514 1514 1514 1515 1516 1517 1518 1519 1519 1520 1520 1521 1522 1522 1523 1524 1524 1524 1524 1524 1524 1524 1524 1524 1524 1523
1506 1506 1506 1506 1506 1506 1506 1506 1506 1507 1508 1508 1508 1508 1509 1509 1509 1510 1511 1511 1512 1513 1513 1514 1516 1516 1517 1517 1518 1519 1519 1520 1521 1520 1521 1521 1521 1521 1521 1521 1520 1520 1520
1503 1503 1503 1503 1503 1503 1503 1503 1503 1504 1504 1505 1505 1505 1505 1505 1506 1506 1507 1508 1508 1509 1510 1510 1511 1512 1513 1513 1514 1515 1515 1516 1517 1517 1518 1518 1518 1518 1518 1517 1517 1517 1517
1501 1501 1501 1501 1500 1500 1500 1500 1500 1501 1501 1501 1501 1501 1501 1501 1502 1502 1503 1504 1504 1505 1506 1507 1508 1508 1509 1510 1510 1511 1512 1513 1513 1514 1514 1514 1514 1515 1514 1514 1514 1513 1513